Time,TemperatureF,DewpointF,PressureIn,WindDirection,WindDirectionDegrees,WindSpeedMPH,WindSpeedGustMPH,Humidity,HourlyPrecipIn,Conditions,Clouds,dailyrainin,SoftwareType,DateUTC
2013-02-02 00:00:00,14.2,6.5,29.17,SW,225,2.2,4.3,71,0.00,,---,0.00,VWS V14.01,2013-02-02 06:00:00,
2013-02-02 00:05:00,14.2,6.5,29.17,SSW,202,2.5,2.5,71,0.00,,---,0.00,VWS V14.01,2013-02-02 06:05:00,
2013-02-02 00:10:00,14.2,6.5,29.14,SSW,202,2.7,2.7,71,0.00,,---,0.00,VWS V14.01,2013-02-02 06:10:00,
2013-02-02 00:15:00,14.4,7.0,29.14,South,180,2.7,2.7,72,0.00,,---,0.00,VWS V14.01,2013-02-02 06:15:00,
2013-02-02 00:20:00,14.4,7.0,29.14,SSW,202,2.5,2.7,72,0.00,,---,0.00,VWS V14.01,2013-02-02 06:20:00,
2013-02-02 00:25:00,14.4,7.0,29.14,South,180,2.7,2.7,72,0.00,,---,0.00,VWS V14.01,2013-02-02 06:25:00,
2013-02-02 00:30:00,14.4,7.0,29.14,South,180,2.7,2.7,72,0.00,,---,0.00,VWS V14.01,2013-02-02 06:30:00,
2013-02-02 00:35:00,14.4,7.0,29.14,South,180,2.9,2.9,72,0.00,,---,0.00,VWS V14.01,2013-02-02 06:35:00,
2013-02-02 00:40:00,14.2,7.1,29.14,South,180,2.9,2.9,73,0.00,,---,0.00,VWS V14.01,2013-02-02 06:40:00,
2013-02-02 00:45:00,14.4,7.3,29.14,South,180,2.7,2.7,73,0.00,,---,0.00,VWS V14.01,2013-02-02 06:45:00,
2013-02-02 00:50:00,14.5,7.5,29.14,SSW,202,4.3,4.3,73,0.00,,---,0.00,VWS V14.01,2013-02-02 06:50:00,
2013-02-02 00:55:00,14.4,7.3,29.14,SSW,202,3.4,3.4,73,0.00,,---,0.00,VWS V14.01,2013-02-02 06:55:00,
2013-02-02 01:00:00,14.5,7.8,29.14,South,180,2.7,3.8,74,0.00,,---,0.00,VWS V14.01,2013-02-02 07:00:00,
2013-02-02 01:05:00,14.5,7.8,29.14,SSW,202,1.6,1.6,74,0.00,,---,0.00,VWS V14.01,2013-02-02 07:05:00,
2013-02-02 01:10:00,14.7,7.9,29.12,South,180,2.7,2.7,74,0.00,,---,0.00,VWS V14.01,2013-02-02 07:10:00,
2013-02-02 01:15:00,14.9,8.1,29.12,SSW,202,4.3,4.3,74,0.00,,---,0.00,VWS V14.01,2013-02-02 07:15:00,
2013-02-02 01:20:00,14.9,8.1,29.12,South,180,3.6,3.6,74,0.00,,---,0.00,VWS V14.01,2013-02-02 07:20:00,
2013-02-02 01:25:00,14.9,8.1,29.12,SSW,202,3.1,3.1,74,0.00,,---,0.00,VWS V14.01,2013-02-02 07:25:00,
2013-02-02 01:30:00,14.9,8.1,29.12,SSW,202,3.1,3.1,74,0.00,,---,0.00,VWS V14.01,2013-02-02 07:30:00,
2013-02-02 01:35:00,15.1,8.6,29.12,SSW,202,3.1,3.1,75,0.00,,---,0.00,VWS V14.01,2013-02-02 07:35:00,
2013-02-02 01:40:00,15.1,8.6,29.12,SSW,202,4.0,4.0,75,0.00,,---,0.00,VWS V14.01,2013-02-02 07:40:00,
2013-02-02 01:45:00,15.1,8.6,29.12,South,180,3.1,3.1,75,0.00,,---,0.00,VWS V14.01,2013-02-02 07:45:00,
2013-02-02 01:50:00,15.3,8.8,29.12,South,180,5.8,5.8,75,0.00,,---,0.00,VWS V14.01,2013-02-02 07:50:00,
2013-02-02 01:55:00,15.3,8.8,29.12,South,180,4.3,4.3,75,0.00,,---,0.00,VWS V14.01,2013-02-02 07:55:00,
2013-02-02 02:00:00,15.4,9.2,29.12,South,180,4.9,4.9,76,0.00,,---,0.00,VWS V14.01,2013-02-02 08:00:00,
2013-02-02 02:05:00,15.4,9.2,29.12,SSW,202,2.9,2.9,76,0.00,,---,0.00,VWS V14.01,2013-02-02 08:05:00,
2013-02-02 02:10:00,15.6,9.4,29.09,SSW,202,3.4,3.8,76,0.00,,---,0.00,VWS V14.01,2013-02-02 08:10:00,
2013-02-02 02:15:00,15.6,9.4,29.09,SSW,202,4.0,4.0,76,0.00,,---,0.00,VWS V14.01,2013-02-02 08:15:00,
2013-02-02 02:20:00,15.8,9.6,29.09,SSW,202,2.9,2.9,76,0.00,,---,0.00,VWS V14.01,2013-02-02 08:20:00,
2013-02-02 02:25:00,15.8,9.6,29.09,South,180,3.6,3.6,76,0.00,,---,0.00,VWS V14.01,2013-02-02 08:25:00,
2013-02-02 02:30:00,16.0,9.8,29.09,SSW,202,3.4,3.4,76,0.00,,---,0.00,VWS V14.01,2013-02-02 08:30:00,
2013-02-02 02:35:00,16.0,9.8,29.09,South,180,3.4,5.4,76,0.00,,---,0.00,VWS V14.01,2013-02-02 08:35:00,
2013-02-02 02:40:00,16.0,9.8,29.09,South,180,2.5,2.5,76,0.00,,---,0.00,VWS V14.01,2013-02-02 08:40:00,
2013-02-02 02:45:00,16.2,9.9,29.09,South,180,3.4,4.0,76,0.00,,---,0.00,VWS V14.01,2013-02-02 08:45:00,
2013-02-02 02:50:00,16.2,9.9,29.09,SSE,158,2.5,3.1,76,0.00,,---,0.00,VWS V14.01,2013-02-02 08:50:00,
2013-02-02 02:55:00,16.5,10.6,29.09,SSW,202,3.8,4.0,77,0.00,,---,0.00,VWS V14.01,2013-02-02 08:55:00,
2013-02-02 03:00:00,16.5,10.6,29.09,SSW,202,2.9,3.6,77,0.00,,---,0.00,VWS V14.01,2013-02-02 09:00:00,
2013-02-02 03:05:00,16.7,10.8,29.09,SSW,202,3.8,3.8,77,0.00,,---,0.00,VWS V14.01,2013-02-02 09:05:00,
2013-02-02 03:10:00,16.7,10.8,29.06,SSW,202,2.9,2.9,77,0.00,,---,0.00,VWS V14.01,2013-02-02 09:10:00,
2013-02-02 03:15:00,16.9,10.9,29.06,SSW,202,3.1,4.0,77,0.00,,---,0.00,VWS V14.01,2013-02-02 09:15:00,
2013-02-02 03:20:00,16.9,10.9,29.06,SW,225,3.6,3.6,77,0.00,,---,0.00,VWS V14.01,2013-02-02 09:20:00,
2013-02-02 03:25:00,17.1,11.1,29.06,SSW,202,3.8,3.8,77,0.00,,---,0.00,VWS V14.01,2013-02-02 09:25:00,
2013-02-02 03:30:00,17.2,11.6,29.06,SSW,202,3.6,3.6,78,0.00,,---,0.00,VWS V14.01,2013-02-02 09:30:00,
2013-02-02 03:35:00,17.4,11.8,29.06,SW,225,2.5,4.7,78,0.00,,---,0.00,VWS V14.01,2013-02-02 09:35:00,
2013-02-02 03:40:00,17.6,11.9,29.06,SSW,202,5.6,5.6,78,0.00,,---,0.00,VWS V14.01,2013-02-02 09:40:00,
2013-02-02 03:45:00,17.8,12.1,29.06,SE,135,3.8,3.8,78,0.00,,---,0.00,VWS V14.01,2013-02-02 09:45:00,
2013-02-02 03:50:00,18.0,12.3,29.06,WSW,248,4.3,4.9,78,0.00,,---,0.00,VWS V14.01,2013-02-02 09:50:00,
2013-02-02 03:55:00,18.1,12.4,29.06,SW,225,5.6,6.3,78,0.00,,---,0.00,VWS V14.01,2013-02-02 09:55:00,
2013-02-02 04:00:00,18.3,12.6,29.06,West,270,3.6,3.6,78,0.00,,---,0.00,VWS V14.01,2013-02-02 10:00:00,
2013-02-02 04:05:00,18.3,12.6,29.06,SW,225,1.3,1.3,78,0.00,,---,0.00,VWS V14.01,2013-02-02 10:05:00,
2013-02-02 04:10:00,18.5,12.8,29.06,West,270,2.9,2.9,78,0.00,,---,0.00,VWS V14.01,2013-02-02 10:10:00,
2013-02-02 04:15:00,18.5,12.8,29.06,SSW,202,3.8,3.8,78,0.00,,---,0.00,VWS V14.01,2013-02-02 10:15:00,
2013-02-02 04:20:00,18.7,13.0,29.06,SSW,202,2.0,2.5,78,0.00,,---,0.00,VWS V14.01,2013-02-02 10:20:00,
2013-02-02 04:25:00,18.9,13.4,29.06,SSW,202,1.6,1.6,79,0.00,,---,0.00,VWS V14.01,2013-02-02 10:25:00,
2013-02-02 04:30:00,19.0,13.6,29.06,SSW,202,3.1,3.1,79,0.00,,---,0.00,VWS V14.01,2013-02-02 10:30:00,
2013-02-02 04:35:00,19.0,13.6,29.06,SSW,202,2.9,2.9,79,0.00,,---,0.00,VWS V14.01,2013-02-02 10:35:00,
2013-02-02 04:40:00,19.2,13.8,29.03,SSW,202,2.9,2.9,79,0.00,,---,0.00,VWS V14.01,2013-02-02 10:40:00,
2013-02-02 04:45:00,19.2,13.8,29.03,SSW,202,2.9,2.9,79,0.00,,---,0.00,VWS V14.01,2013-02-02 10:45:00,
2013-02-02 04:50:00,19.4,14.2,29.03,WSW,248,2.2,3.4,80,0.00,,---,0.00,VWS V14.01,2013-02-02 10:50:00,
2013-02-02 04:55:00,19.4,14.2,29.03,SW,225,2.2,2.2,80,0.00,,---,0.00,VWS V14.01,2013-02-02 10:55:00,
2013-02-02 05:00:00,19.6,14.1,29.03,SSW,202,1.6,1.6,79,0.00,,---,0.00,VWS V14.01,2013-02-02 11:00:00,
2013-02-02 05:05:00,19.6,14.4,29.03,SSW,202,2.0,2.0,80,0.00,,---,0.00,VWS V14.01,2013-02-02 11:05:00,
2013-02-02 05:10:00,19.8,14.6,29.03,WSW,248,3.1,3.1,80,0.00,,---,0.00,VWS V14.01,2013-02-02 11:10:00,
2013-02-02 05:15:00,19.9,14.8,29.03,SSW,202,2.0,2.0,80,0.00,,---,0.00,VWS V14.01,2013-02-02 11:15:00,
2013-02-02 05:20:00,19.9,14.8,29.03,SW,225,1.3,1.3,80,0.00,,---,0.00,VWS V14.01,2013-02-02 11:20:00,
2013-02-02 05:25:00,19.9,14.8,29.03,WSW,248,2.7,2.7,80,0.00,,---,0.00,VWS V14.01,2013-02-02 11:25:00,
2013-02-02 05:30:00,20.1,14.9,29.03,SW,225,2.9,2.9,80,0.00,,---,0.00,VWS V14.01,2013-02-02 11:30:00,
2013-02-02 05:35:00,20.1,14.9,29.03,SSW,202,2.9,2.9,80,0.00,,---,0.00,VWS V14.01,2013-02-02 11:35:00,
2013-02-02 05:40:00,20.3,15.1,29.03,West,270,0.0,1.1,80,0.00,,---,0.00,VWS V14.01,2013-02-02 11:40:00,
2013-02-02 05:45:00,20.3,15.1,29.03,West,270,0.0,0.0,80,0.00,,---,0.00,VWS V14.01,2013-02-02 11:45:00,
2013-02-02 05:50:00,20.3,15.1,29.03,West,270,0.0,0.0,80,0.00,,---,0.00,VWS V14.01,2013-02-02 11:50:00,
2013-02-02 05:55:00,20.3,15.1,29.03,SSW,202,2.7,2.9,80,0.00,,---,0.00,VWS V14.01,2013-02-02 11:55:00,
2013-02-02 06:00:00,20.3,15.1,29.03,South,180,2.9,3.6,80,0.00,,---,0.00,VWS V14.01,2013-02-02 12:00:00,
2013-02-02 06:05:00,20.5,15.6,29.03,SSW,202,3.1,3.1,81,0.00,,---,0.00,VWS V14.01,2013-02-02 12:05:00,
2013-02-02 06:10:00,20.5,15.6,29.03,SW,225,0.0,1.3,81,0.00,,---,0.00,VWS V14.01,2013-02-02 12:10:00,
2013-02-02 06:15:00,20.5,15.6,29.03,SW,225,1.1,1.1,81,0.00,,---,0.00,VWS V14.01,2013-02-02 12:15:00,
2013-02-02 06:20:00,20.5,15.6,29.03,SW,225,0.0,0.0,81,0.00,,---,0.00,VWS V14.01,2013-02-02 12:20:00,
2013-02-02 06:25:00,20.7,15.8,29.03,SW,225,0.0,0.0,81,0.00,,---,0.00,VWS V14.01,2013-02-02 12:25:00,
2013-02-02 06:30:00,20.8,15.9,29.03,SW,225,0.0,0.0,81,0.00,,---,0.00,VWS V14.01,2013-02-02 12:30:00,
2013-02-02 06:35:00,20.8,15.9,29.03,SW,225,0.0,0.0,81,0.00,,---,0.00,VWS V14.01,2013-02-02 12:35:00,
2013-02-02 06:40:00,21.0,16.1,29.03,SW,225,0.0,0.0,81,0.00,,---,0.00,VWS V14.01,2013-02-02 12:40:00,
2013-02-02 06:45:00,21.0,16.1,29.03,SW,225,1.3,1.3,81,0.00,,---,0.00,VWS V14.01,2013-02-02 12:45:00,
2013-02-02 06:50:00,21.0,16.1,29.03,SW,225,0.0,0.0,81,0.00,,---,0.00,VWS V14.01,2013-02-02 12:50:00,
2013-02-02 06:55:00,21.0,16.1,29.03,SW,225,0.0,0.0,81,0.00,,---,0.00,VWS V14.01,2013-02-02 12:55:00,
2013-02-02 07:00:00,21.2,16.3,29.03,SW,225,0.0,0.0,81,0.00,,---,0.00,VWS V14.01,2013-02-02 13:00:00,
2013-02-02 07:05:00,21.2,16.3,29.03,SW,225,0.0,0.0,81,0.00,,---,0.00,VWS V14.01,2013-02-02 13:05:00,
2013-02-02 07:10:00,21.4,16.5,29.03,SW,225,0.0,0.0,81,0.00,,---,0.00,VWS V14.01,2013-02-02 13:10:00,
2013-02-02 07:15:00,21.4,16.5,29.03,SW,225,0.0,0.0,81,0.00,,---,0.00,VWS V14.01,2013-02-02 13:15:00,
2013-02-02 07:20:00,21.4,16.5,29.03,SW,225,0.0,0.0,81,0.00,,---,0.00,VWS V14.01,2013-02-02 13:20:00,
2013-02-02 07:25:00,21.6,16.6,29.03,SW,225,0.0,0.0,81,0.00,,---,0.00,VWS V14.01,2013-02-02 13:25:00,
2013-02-02 07:30:00,21.7,16.8,29.03,SW,225,0.0,0.0,81,0.00,,---,0.00,VWS V14.01,2013-02-02 13:30:00,
2013-02-02 07:35:00,21.7,16.8,29.03,SW,225,0.0,0.0,81,0.00,,---,0.00,VWS V14.01,2013-02-02 13:35:00,
2013-02-02 07:40:00,21.6,16.6,29.03,SW,225,0.0,0.0,81,0.00,,---,0.00,VWS V14.01,2013-02-02 13:40:00,
2013-02-02 07:45:00,21.4,16.5,29.03,NE,45,2.5,2.5,81,0.00,,---,0.00,VWS V14.01,2013-02-02 13:45:00,
2013-02-02 07:50:00,21.4,16.2,29.03,NNE,22,1.6,1.6,80,0.00,,---,0.00,VWS V14.01,2013-02-02 13:50:00,
2013-02-02 07:55:00,21.4,16.5,29.03,NE,45,1.6,1.6,81,0.00,,---,0.00,VWS V14.01,2013-02-02 13:55:00,
2013-02-02 08:00:00,21.4,16.5,29.03,NNE,22,1.3,1.3,81,0.00,,---,0.00,VWS V14.01,2013-02-02 14:00:00,
2013-02-02 08:05:00,21.2,16.3,29.03,NNE,22,2.2,2.2,81,0.00,,---,0.00,VWS V14.01,2013-02-02 14:05:00,
2013-02-02 08:10:00,21.2,16.3,29.03,NNE,22,2.7,2.7,81,0.00,,---,0.00,VWS V14.01,2013-02-02 14:10:00,
2013-02-02 08:15:00,21.0,16.1,29.03,NNE,22,4.9,4.9,81,0.00,,---,0.00,VWS V14.01,2013-02-02 14:15:00,
2013-02-02 08:20:00,20.7,15.8,29.03,NNE,22,6.3,6.3,81,0.00,,---,0.00,VWS V14.01,2013-02-02 14:20:00,
2013-02-02 08:25:00,20.1,14.9,29.03,NNE,22,6.5,6.5,80,0.00,,---,0.00,VWS V14.01,2013-02-02 14:25:00,
2013-02-02 08:30:00,18.5,13.1,29.03,NNE,22,5.6,5.6,79,0.00,,---,0.00,VWS V14.01,2013-02-02 14:30:00,
2013-02-02 08:35:00,17.1,11.4,29.03,NNE,22,6.5,7.8,78,0.00,,---,0.00,VWS V14.01,2013-02-02 14:35:00,
2013-02-02 08:40:00,16.7,10.8,29.06,NE,45,4.9,4.9,77,0.00,,---,0.00,VWS V14.01,2013-02-02 14:40:00,
2013-02-02 08:45:00,16.5,10.6,29.06,NNE,22,4.3,4.3,77,0.00,,---,0.00,VWS V14.01,2013-02-02 14:45:00,
2013-02-02 08:50:00,16.2,9.9,29.06,NNE,22,3.8,5.4,76,0.00,,---,0.00,VWS V14.01,2013-02-02 14:50:00,
2013-02-02 08:55:00,15.8,9.6,29.06,NNE,22,5.8,5.8,76,0.00,,---,0.00,VWS V14.01,2013-02-02 14:55:00,
2013-02-02 09:00:00,15.1,8.9,29.06,NNE,22,4.9,4.9,76,0.00,,---,0.00,VWS V14.01,2013-02-02 15:00:00,
2013-02-02 09:05:00,14.9,8.7,29.06,NNE,22,3.8,3.8,76,0.00,,---,0.00,VWS V14.01,2013-02-02 15:05:00,
2013-02-02 09:10:00,14.4,7.9,29.06,NNE,22,5.6,5.6,75,0.00,,---,0.00,VWS V14.01,2013-02-02 15:10:00,
2013-02-02 09:15:00,13.8,7.4,29.06,NNE,22,5.4,5.4,75,0.00,,---,0.00,VWS V14.01,2013-02-02 15:15:00,
2013-02-02 09:20:00,14.0,7.6,29.06,NNE,22,6.0,6.0,75,0.00,,---,0.00,VWS V14.01,2013-02-02 15:20:00,
2013-02-02 09:25:00,13.5,7.0,29.06,NNE,22,6.3,6.3,75,0.00,,---,0.00,VWS V14.01,2013-02-02 15:25:00,
2013-02-02 09:30:00,13.3,6.8,29.06,NNE,22,5.8,5.8,75,0.00,,---,0.00,VWS V14.01,2013-02-02 15:30:00,
2013-02-02 09:35:00,13.3,6.8,29.06,NNE,22,5.8,5.8,75,0.00,,---,0.00,VWS V14.01,2013-02-02 15:35:00,
2013-02-02 09:40:00,13.5,7.0,29.06,NNE,22,3.6,3.6,75,0.00,,---,0.00,VWS V14.01,2013-02-02 15:40:00,
2013-02-02 09:45:00,13.5,7.0,29.06,NNE,22,3.4,3.4,75,0.00,,---,0.00,VWS V14.01,2013-02-02 15:45:00,
2013-02-02 09:50:00,13.5,7.0,29.06,NNE,22,4.3,5.6,75,0.00,,---,0.00,VWS V14.01,2013-02-02 15:50:00,
2013-02-02 09:55:00,13.3,6.8,29.06,NNE,22,3.1,3.8,75,0.00,,---,0.00,VWS V14.01,2013-02-02 15:55:00,
2013-02-02 10:00:00,13.5,7.0,29.06,NNE,22,3.8,3.8,75,0.00,,---,0.00,VWS V14.01,2013-02-02 16:00:00,
2013-02-02 10:05:00,13.6,7.2,29.06,NNE,22,4.0,4.0,75,0.00,,---,0.00,VWS V14.01,2013-02-02 16:05:00,
2013-02-02 10:10:00,14.0,7.0,29.06,North,0,4.3,4.3,73,0.00,,---,0.00,VWS V14.01,2013-02-02 16:10:00,
2013-02-02 10:15:00,14.0,7.0,29.06,NNE,22,4.0,4.0,73,0.00,,---,0.00,VWS V14.01,2013-02-02 16:15:00,
2013-02-02 10:20:00,14.2,6.8,29.06,NNE,22,2.7,2.7,72,0.00,,---,0.00,VWS V14.01,2013-02-02 16:20:00,
2013-02-02 10:25:00,14.4,7.0,29.06,NNE,22,4.3,4.3,72,0.00,,---,0.00,VWS V14.01,2013-02-02 16:25:00,
2013-02-02 10:30:00,14.4,7.0,29.06,NNE,22,3.8,3.8,72,0.00,,---,0.00,VWS V14.01,2013-02-02 16:30:00,
2013-02-02 10:35:00,14.5,7.2,29.06,NNE,22,3.1,3.1,72,0.00,,---,0.00,VWS V14.01,2013-02-02 16:35:00,
2013-02-02 10:40:00,14.4,6.7,29.06,NNE,22,4.0,4.0,71,0.00,,---,0.00,VWS V14.01,2013-02-02 16:40:00,
2013-02-02 10:45:00,14.4,6.7,29.06,NNE,22,5.6,5.6,71,0.00,,---,0.00,VWS V14.01,2013-02-02 16:45:00,
2013-02-02 10:50:00,14.7,7.0,29.06,NNE,22,3.1,3.8,71,0.00,,---,0.00,VWS V14.01,2013-02-02 16:50:00,
2013-02-02 10:55:00,14.9,7.2,29.06,NNE,22,3.6,3.6,71,0.00,,---,0.00,VWS V14.01,2013-02-02 16:55:00,
2013-02-02 11:00:00,15.3,7.6,29.06,NNE,22,4.0,4.0,71,0.00,,---,0.00,VWS V14.01,2013-02-02 17:00:00,
2013-02-02 11:05:00,15.6,7.9,29.06,NNE,22,2.0,2.0,71,0.00,,---,0.00,VWS V14.01,2013-02-02 17:05:00,
2013-02-02 11:10:00,15.4,7.4,29.06,NNE,22,4.0,4.0,70,0.00,,---,0.00,VWS V14.01,2013-02-02 17:10:00,
2013-02-02 11:15:00,15.4,7.4,29.06,NNE,22,4.9,4.9,70,0.00,,---,0.00,VWS V14.01,2013-02-02 17:15:00,
2013-02-02 11:20:00,15.3,6.9,29.06,NNE,22,4.9,6.5,69,0.00,,---,0.00,VWS V14.01,2013-02-02 17:20:00,
2013-02-02 11:25:00,15.1,6.4,29.06,NNE,22,4.3,5.6,68,0.00,,---,0.00,VWS V14.01,2013-02-02 17:25:00,
2013-02-02 11:30:00,15.1,6.1,29.06,NNE,22,5.6,5.6,67,0.00,,---,0.00,VWS V14.01,2013-02-02 17:30:00,
2013-02-02 11:35:00,15.1,6.1,29.06,NNE,22,4.9,6.5,67,0.00,,---,0.00,VWS V14.01,2013-02-02 17:35:00,
2013-02-02 11:40:00,15.1,5.8,29.06,NNE,22,4.0,4.0,66,0.00,,---,0.00,VWS V14.01,2013-02-02 17:40:00,
2013-02-02 11:45:00,15.4,6.1,29.06,NNE,22,4.0,4.0,66,0.00,,---,0.00,VWS V14.01,2013-02-02 17:45:00,
2013-02-02 11:50:00,15.4,6.1,29.06,NNE,22,4.0,4.0,66,0.00,,---,0.00,VWS V14.01,2013-02-02 17:50:00,
2013-02-02 11:55:00,15.4,5.8,29.06,NNE,22,2.5,4.0,65,0.00,,---,0.00,VWS V14.01,2013-02-02 17:55:00,
2013-02-02 12:00:00,15.4,5.8,29.06,NNE,22,4.9,4.9,65,0.00,,---,0.00,VWS V14.01,2013-02-02 18:00:00,
2013-02-02 12:05:00,15.3,5.3,29.06,NNE,22,4.3,4.3,64,0.00,,---,0.00,VWS V14.01,2013-02-02 18:05:00,
2013-02-02 12:10:00,15.4,5.4,29.06,NNE,22,4.5,4.5,64,0.00,,---,0.00,VWS V14.01,2013-02-02 18:10:00,
2013-02-02 12:15:00,15.4,5.4,29.06,NNE,22,4.3,4.9,64,0.00,,---,0.00,VWS V14.01,2013-02-02 18:15:00,
2013-02-02 12:20:00,15.8,6.1,29.06,NNE,22,4.9,4.9,65,0.00,,---,0.00,VWS V14.01,2013-02-02 18:20:00,
2013-02-02 12:25:00,16.0,6.0,29.06,NNE,22,3.8,3.8,64,0.00,,---,0.00,VWS V14.01,2013-02-02 18:25:00,
2013-02-02 12:30:00,16.0,5.6,29.06,NNE,22,3.1,3.1,63,0.00,,---,0.00,VWS V14.01,2013-02-02 18:30:00,
2013-02-02 12:35:00,16.0,5.3,29.06,NNE,22,2.5,2.5,62,0.00,,---,0.00,VWS V14.01,2013-02-02 18:35:00,
2013-02-02 12:40:00,15.8,5.1,29.06,NE,45,5.4,5.4,62,0.00,,---,0.00,VWS V14.01,2013-02-02 18:40:00,
2013-02-02 12:45:00,15.8,5.1,29.06,NNE,22,5.4,5.4,62,0.00,,---,0.00,VWS V14.01,2013-02-02 18:45:00,
2013-02-02 12:50:00,16.2,5.4,29.06,NNE,22,4.3,4.3,62,0.00,,---,0.00,VWS V14.01,2013-02-02 18:50:00,
2013-02-02 12:55:00,16.2,5.4,29.06,NNE,22,2.9,4.9,62,0.00,,---,0.00,VWS V14.01,2013-02-02 18:55:00,
2013-02-02 13:00:00,16.0,4.9,29.06,NNE,22,4.3,4.3,61,0.00,,---,0.00,VWS V14.01,2013-02-02 19:00:00,
2013-02-02 13:05:00,16.0,4.9,29.06,NNE,22,3.6,3.6,61,0.00,,---,0.00,VWS V14.01,2013-02-02 19:05:00,
2013-02-02 13:10:00,16.0,4.6,29.06,NNE,22,2.5,5.8,60,0.00,,---,0.00,VWS V14.01,2013-02-02 19:10:00,
2013-02-02 13:15:00,16.0,4.6,29.06,NNE,22,4.0,4.0,60,0.00,,---,0.00,VWS V14.01,2013-02-02 19:15:00,
2013-02-02 13:20:00,15.8,4.4,29.06,NE,45,4.9,4.9,60,0.00,,---,0.00,VWS V14.01,2013-02-02 19:20:00,
2013-02-02 13:25:00,16.3,4.9,29.06,NNE,22,6.3,6.3,60,0.00,,---,0.00,VWS V14.01,2013-02-02 19:25:00,
2013-02-02 13:30:00,15.8,4.4,29.06,NNE,22,5.4,5.4,60,0.00,,---,0.00,VWS V14.01,2013-02-02 19:30:00,
2013-02-02 13:35:00,15.8,4.4,29.06,NNE,22,3.6,3.8,60,0.00,,---,0.00,VWS V14.01,2013-02-02 19:35:00,
2013-02-02 13:40:00,16.3,4.5,29.06,NNE,22,5.4,6.0,59,0.00,,---,0.00,VWS V14.01,2013-02-02 19:40:00,
2013-02-02 13:45:00,16.5,4.7,29.06,NNE,22,4.7,4.7,59,0.00,,---,0.00,VWS V14.01,2013-02-02 19:45:00,
2013-02-02 13:50:00,17.1,5.2,29.06,NNE,22,3.4,4.9,59,0.00,,---,0.00,VWS V14.01,2013-02-02 19:50:00,
2013-02-02 13:55:00,16.7,4.9,29.06,NNE,22,4.9,6.0,59,0.00,,---,0.00,VWS V14.01,2013-02-02 19:55:00,
2013-02-02 14:00:00,16.2,4.4,29.06,NNE,22,4.9,4.9,59,0.00,,---,0.00,VWS V14.01,2013-02-02 20:00:00,
2013-02-02 14:05:00,16.2,4.4,29.06,NNE,22,6.3,6.3,59,0.00,,---,0.00,VWS V14.01,2013-02-02 20:05:00,
2013-02-02 14:10:00,16.2,4.4,29.06,NE,45,3.6,3.6,59,0.00,,---,0.00,VWS V14.01,2013-02-02 20:10:00,
2013-02-02 14:15:00,16.3,4.2,29.06,NNE,22,4.3,5.8,58,0.00,,---,0.00,VWS V14.01,2013-02-02 20:15:00,
2013-02-02 14:20:00,16.0,3.8,29.06,NNE,22,4.3,4.3,58,0.00,,---,0.00,VWS V14.01,2013-02-02 20:20:00,
2013-02-02 14:25:00,16.2,4.0,29.09,NNE,22,6.3,6.3,58,0.00,,---,0.00,VWS V14.01,2013-02-02 20:25:00,
2013-02-02 14:30:00,16.0,3.8,29.09,NNE,22,4.9,4.9,58,0.00,,---,0.00,VWS V14.01,2013-02-02 20:30:00,
2013-02-02 14:35:00,16.0,3.8,29.09,NNE,22,4.3,4.3,58,0.00,,---,0.00,VWS V14.01,2013-02-02 20:35:00,
2013-02-02 14:40:00,15.6,3.5,29.09,NNE,22,5.8,5.8,58,0.00,,---,0.00,VWS V14.01,2013-02-02 20:40:00,
2013-02-02 14:45:00,15.8,3.7,29.09,NNE,22,3.8,4.3,58,0.00,,---,0.00,VWS V14.01,2013-02-02 20:45:00,
2013-02-02 14:50:00,16.2,4.0,29.09,NNE,22,2.5,2.9,58,0.00,,---,0.00,VWS V14.01,2013-02-02 20:50:00,
2013-02-02 14:55:00,16.2,4.0,29.09,NNW,338,1.1,1.1,58,0.00,,---,0.00,VWS V14.01,2013-02-02 20:55:00,
2013-02-02 15:00:00,16.7,4.5,29.09,NNE,22,2.5,3.1,58,0.00,,---,0.00,VWS V14.01,2013-02-02 21:00:00,
2013-02-02 15:05:00,16.5,4.3,29.09,North,0,3.1,3.4,58,0.00,,---,0.00,VWS V14.01,2013-02-02 21:05:00,
2013-02-02 15:10:00,16.3,4.2,29.09,NNE,22,4.5,4.5,58,0.00,,---,0.00,VWS V14.01,2013-02-02 21:10:00,
2013-02-02 15:14:00,15.8,3.7,29.09,NNE,22,3.8,5.4,58,0.00,,---,0.00,VWS V14.01,2013-02-02 21:14:00,
2013-02-02 15:19:00,16.0,3.8,29.09,NNE,22,2.7,2.7,58,0.00,,---,0.00,VWS V14.01,2013-02-02 21:19:00,
2013-02-02 15:24:00,15.8,3.7,29.09,NNE,22,3.1,3.1,58,0.00,,---,0.00,VWS V14.01,2013-02-02 21:24:00,
2013-02-02 15:29:00,15.8,3.7,29.09,NNE,22,2.5,2.9,58,0.00,,---,0.00,VWS V14.01,2013-02-02 21:29:00,
2013-02-02 15:34:00,15.4,3.3,29.09,NNE,22,2.9,2.9,58,0.00,,---,0.00,VWS V14.01,2013-02-02 21:34:00,
2013-02-02 15:39:00,15.3,3.2,29.09,NE,45,4.9,4.9,58,0.00,,---,0.00,VWS V14.01,2013-02-02 21:39:00,
2013-02-02 15:44:00,15.1,3.0,29.09,NNE,22,3.1,3.1,58,0.00,,---,0.00,VWS V14.01,2013-02-02 21:44:00,
2013-02-02 15:49:00,15.3,3.2,29.09,NNE,22,3.8,3.8,58,0.00,,---,0.00,VWS V14.01,2013-02-02 21:49:00,
2013-02-02 15:54:00,15.1,3.0,29.09,NNE,22,2.2,2.2,58,0.00,,---,0.00,VWS V14.01,2013-02-02 21:54:00,
2013-02-02 15:59:00,15.1,3.0,29.09,NNE,22,2.7,2.9,58,0.00,,---,0.00,VWS V14.01,2013-02-02 21:59:00,
2013-02-02 16:04:00,15.1,3.0,29.09,NNE,22,2.5,2.5,58,0.00,,---,0.00,VWS V14.01,2013-02-02 22:04:00,
2013-02-02 16:09:00,15.1,3.0,29.09,NNE,22,2.2,2.5,58,0.00,,---,0.00,VWS V14.01,2013-02-02 22:09:00,
2013-02-02 16:14:00,14.9,2.8,29.09,NNE,22,2.0,2.0,58,0.00,,---,0.00,VWS V14.01,2013-02-02 22:14:00,
2013-02-02 16:19:00,14.9,2.8,29.09,NNE,22,2.0,2.7,58,0.00,,---,0.00,VWS V14.01,2013-02-02 22:19:00,
2013-02-02 16:24:00,15.1,3.0,29.09,NNE,22,2.0,2.0,58,0.00,,---,0.00,VWS V14.01,2013-02-02 22:24:00,
2013-02-02 16:29:00,15.1,3.0,29.09,NNE,22,0.0,0.0,58,0.00,,---,0.00,VWS V14.01,2013-02-02 22:29:00,
2013-02-02 16:34:00,15.3,3.5,29.09,East,90,1.1,1.1,59,0.00,,---,0.00,VWS V14.01,2013-02-02 22:34:00,
2013-02-02 16:39:00,14.9,3.2,29.09,SW,225,1.6,1.6,59,0.00,,---,0.00,VWS V14.01,2013-02-02 22:39:00,
2013-02-02 16:44:00,14.9,2.8,29.09,North,0,2.9,3.1,58,0.00,,---,0.00,VWS V14.01,2013-02-02 22:44:00,
2013-02-02 16:49:00,14.5,2.5,29.09,NE,45,1.6,1.6,58,0.00,,---,0.00,VWS V14.01,2013-02-02 22:49:00,
2013-02-02 16:54:00,14.5,2.5,29.09,ENE,68,2.7,2.7,58,0.00,,---,0.00,VWS V14.01,2013-02-02 22:54:00,
2013-02-02 16:59:00,14.2,2.1,29.09,NNE,22,0.9,0.9,58,0.00,,---,0.00,VWS V14.01,2013-02-02 22:59:00,
2013-02-02 17:04:00,14.4,2.7,29.09,West,270,2.7,2.7,59,0.00,,---,0.00,VWS V14.01,2013-02-02 23:04:00,
2013-02-02 17:09:00,14.4,2.7,29.09,West,270,1.6,1.6,59,0.00,,---,0.00,VWS V14.01,2013-02-02 23:09:00,
2013-02-02 17:14:00,14.2,2.5,29.09,WSW,248,0.0,0.0,59,0.00,,---,0.00,VWS V14.01,2013-02-02 23:14:00,
2013-02-02 17:19:00,14.2,2.9,29.09,West,270,0.9,0.9,60,0.00,,---,0.00,VWS V14.01,2013-02-02 23:19:00,
2013-02-02 17:24:00,14.2,2.9,29.09,North,0,2.2,2.2,60,0.00,,---,0.00,VWS V14.01,2013-02-02 23:24:00,
2013-02-02 17:29:00,13.8,2.5,29.09,West,270,0.0,0.0,60,0.00,,---,0.00,VWS V14.01,2013-02-02 23:29:00,
2013-02-02 17:34:00,13.8,2.5,29.09,West,270,0.0,0.0,60,0.00,,---,0.00,VWS V14.01,2013-02-02 23:34:00,
2013-02-02 17:39:00,13.6,2.3,29.09,East,90,1.1,1.6,60,0.00,,---,0.00,VWS V14.01,2013-02-02 23:39:00,
2013-02-02 17:44:00,13.6,2.3,29.09,WSW,248,3.4,4.0,60,0.00,,---,0.00,VWS V14.01,2013-02-02 23:44:00,
2013-02-02 17:49:00,13.3,2.0,29.09,WNW,292,1.3,2.5,60,0.00,,---,0.00,VWS V14.01,2013-02-02 23:49:00,
2013-02-02 17:54:00,13.5,2.2,29.09,North,0,2.0,2.0,60,0.00,,---,0.00,VWS V14.01,2013-02-02 23:54:00,
2013-02-02 17:59:00,12.9,1.7,29.09,SE,135,2.5,2.5,60,0.00,,---,0.00,VWS V14.01,2013-02-02 23:59:00,
2013-02-02 18:04:00,12.7,1.5,29.09,WSW,248,1.6,1.6,60,0.00,,---,0.00,VWS V14.01,2013-02-03 00:04:00,
2013-02-02 18:09:00,12.9,1.7,29.09,NE,45,4.0,4.0,60,0.00,,---,0.00,VWS V14.01,2013-02-03 00:09:00,
2013-02-02 18:14:00,12.7,1.5,29.09,SE,135,0.0,0.0,60,0.00,,---,0.00,VWS V14.01,2013-02-03 00:14:00,
2013-02-02 18:19:00,12.6,1.3,29.09,East,90,2.9,2.9,60,0.00,,---,0.00,VWS V14.01,2013-02-03 00:19:00,
2013-02-02 18:24:00,12.4,1.1,29.12,East,90,4.3,4.3,60,0.00,,---,0.00,VWS V14.01,2013-02-03 00:24:00,
2013-02-02 18:29:00,12.2,1.0,29.12,WNW,292,3.6,3.6,60,0.00,,---,0.00,VWS V14.01,2013-02-03 00:29:00,
2013-02-02 18:34:00,12.0,0.8,29.12,SSW,202,2.7,2.7,60,0.00,,---,0.00,VWS V14.01,2013-02-03 00:34:00,
2013-02-02 18:39:00,11.7,0.5,29.12,WSW,248,3.1,3.1,60,0.00,,---,0.00,VWS V14.01,2013-02-03 00:39:00,
2013-02-02 18:44:00,11.7,0.5,29.12,North,0,1.6,3.1,60,0.00,,---,0.00,VWS V14.01,2013-02-03 00:44:00,
2013-02-02 18:49:00,11.3,0.1,29.12,NE,45,3.4,3.4,60,0.00,,---,0.00,VWS V14.01,2013-02-03 00:49:00,
2013-02-02 18:54:00,11.3,0.1,29.12,NE,45,1.3,3.1,60,0.00,,---,0.00,VWS V14.01,2013-02-03 00:54:00,
2013-02-02 18:59:00,11.5,0.3,29.12,NNE,22,3.1,3.1,60,0.00,,---,0.00,VWS V14.01,2013-02-03 00:59:00,
2013-02-02 19:04:00,11.5,0.3,29.12,East,90,0.0,0.0,60,0.00,,---,0.00,VWS V14.01,2013-02-03 01:04:00,
2013-02-02 19:09:00,11.3,0.1,29.12,ENE,68,1.6,1.6,60,0.00,,---,0.00,VWS V14.01,2013-02-03 01:09:00,
2013-02-02 19:14:00,11.3,0.1,29.12,West,270,1.6,3.4,60,0.00,,---,0.00,VWS V14.01,2013-02-03 01:14:00,
2013-02-02 19:19:00,11.3,0.1,29.12,South,180,2.0,2.0,60,0.00,,---,0.00,VWS V14.01,2013-02-03 01:19:00,
2013-02-02 19:24:00,11.3,0.1,29.12,NE,45,0.0,0.0,60,0.00,,---,0.00,VWS V14.01,2013-02-03 01:24:00,
2013-02-02 19:29:00,11.5,0.3,29.12,West,270,2.0,2.0,60,0.00,,---,0.00,VWS V14.01,2013-02-03 01:29:00,
2013-02-02 19:34:00,11.3,0.1,29.12,WNW,292,2.0,2.0,60,0.00,,---,0.00,VWS V14.01,2013-02-03 01:34:00,
2013-02-02 19:39:00,10.9,-0.2,29.12,ENE,68,2.5,2.5,60,0.00,,---,0.00,VWS V14.01,2013-02-03 01:39:00,
2013-02-02 19:44:00,10.9,-0.2,29.12,NW,315,1.6,1.6,60,0.00,,---,0.00,VWS V14.01,2013-02-03 01:44:00,
2013-02-02 19:49:00,10.9,-0.2,29.12,ENE,68,0.0,0.0,60,0.00,,---,0.00,VWS V14.01,2013-02-03 01:49:00,
2013-02-02 19:54:00,10.9,-0.2,29.12,NNE,22,0.0,0.0,60,0.00,,---,0.00,VWS V14.01,2013-02-03 01:54:00,
2013-02-02 19:59:00,10.9,-0.2,29.12,NNE,22,2.0,2.0,60,0.00,,---,0.00,VWS V14.01,2013-02-03 01:59:00,
2013-02-02 20:04:00,10.6,-0.6,29.12,NNE,22,1.3,1.3,60,0.00,,---,0.00,VWS V14.01,2013-02-03 02:04:00,
2013-02-02 20:09:00,10.8,-0.4,29.12,NE,45,0.0,1.3,60,0.00,,---,0.00,VWS V14.01,2013-02-03 02:09:00,
2013-02-02 20:14:00,10.8,-0.4,29.09,WSW,248,0.0,0.0,60,0.00,,---,0.00,VWS V14.01,2013-02-03 02:14:00,
2013-02-02 20:19:00,10.4,-0.7,29.09,ENE,68,4.0,4.0,60,0.00,,---,0.00,VWS V14.01,2013-02-03 02:19:00,
2013-02-02 20:24:00,10.6,-0.6,29.09,NNE,22,0.0,0.0,60,0.00,,---,0.00,VWS V14.01,2013-02-03 02:24:00,
2013-02-02 20:29:00,10.8,-0.4,29.09,NNE,22,0.0,0.0,60,0.00,,---,0.00,VWS V14.01,2013-02-03 02:29:00,
2013-02-02 20:34:00,10.4,-0.7,29.09,North,0,1.3,1.3,60,0.00,,---,0.00,VWS V14.01,2013-02-03 02:34:00,
2013-02-02 20:39:00,10.8,-0.4,29.09,NNW,338,0.0,1.6,60,0.00,,---,0.00,VWS V14.01,2013-02-03 02:39:00,
2013-02-02 20:44:00,10.8,-0.4,29.09,East,90,0.0,0.0,60,0.00,,---,0.00,VWS V14.01,2013-02-03 02:44:00,
2013-02-02 20:49:00,10.9,-0.2,29.09,East,90,0.0,0.0,60,0.00,,---,0.00,VWS V14.01,2013-02-03 02:49:00,
2013-02-02 20:54:00,10.9,-0.2,29.09,East,90,0.0,0.0,60,0.00,,---,0.00,VWS V14.01,2013-02-03 02:54:00,
2013-02-02 20:59:00,10.8,-0.4,29.09,WSW,248,2.9,2.9,60,0.00,,---,0.00,VWS V14.01,2013-02-03 02:59:00,
2013-02-02 21:04:00,10.8,-0.4,29.09,WSW,248,2.2,2.2,60,0.00,,---,0.00,VWS V14.01,2013-02-03 03:04:00,
2013-02-02 21:09:00,10.9,-0.2,29.09,WSW,248,0.0,0.0,60,0.00,,---,0.00,VWS V14.01,2013-02-03 03:09:00,
2013-02-02 21:14:00,10.9,-0.2,29.09,WSW,248,0.0,0.0,60,0.00,,---,0.00,VWS V14.01,2013-02-03 03:14:00,
2013-02-02 21:19:00,10.8,-0.4,29.09,WSW,248,0.0,0.0,60,0.00,,---,0.00,VWS V14.01,2013-02-03 03:19:00,
2013-02-02 21:24:00,10.6,-0.6,29.09,WSW,248,1.1,1.1,60,0.00,,---,0.00,VWS V14.01,2013-02-03 03:24:00,
2013-02-02 21:29:00,10.6,-0.6,29.09,WSW,248,2.2,2.2,60,0.00,,---,0.00,VWS V14.01,2013-02-03 03:29:00,
2013-02-02 21:34:00,10.4,-0.7,29.09,WSW,248,0.0,0.0,60,0.00,,---,0.00,VWS V14.01,2013-02-03 03:34:00,
2013-02-02 21:39:00,10.4,-0.7,29.09,WSW,248,0.0,0.0,60,0.00,,---,0.00,VWS V14.01,2013-02-03 03:39:00,
2013-02-02 21:44:00,10.4,-0.7,29.09,WSW,248,0.0,0.0,60,0.00,,---,0.00,VWS V14.01,2013-02-03 03:44:00,
2013-02-02 21:49:00,10.4,-0.7,29.09,WSW,248,0.0,0.0,60,0.00,,---,0.00,VWS V14.01,2013-02-03 03:49:00,
2013-02-02 21:54:00,10.2,-0.9,29.09,WSW,248,0.0,0.0,60,0.00,,---,0.00,VWS V14.01,2013-02-03 03:54:00,
2013-02-02 21:59:00,10.2,-0.9,29.09,WSW,248,0.0,0.0,60,0.00,,---,0.00,VWS V14.01,2013-02-03 03:59:00,
2013-02-02 22:04:00,11.1,0.0,29.09,WSW,248,0.0,0.0,60,0.00,,---,0.00,VWS V14.01,2013-02-03 04:04:00,
2013-02-02 22:09:00,11.7,0.5,29.06,WSW,248,0.0,0.0,60,0.00,,---,0.00,VWS V14.01,2013-02-03 04:09:00,
2013-02-02 22:14:00,11.7,0.5,29.06,WSW,248,0.0,0.0,60,0.00,,---,0.00,VWS V14.01,2013-02-03 04:14:00,
2013-02-02 22:19:00,12.0,0.8,29.06,WSW,248,0.0,0.0,60,0.00,,---,0.00,VWS V14.01,2013-02-03 04:19:00,
2013-02-02 22:24:00,12.9,1.7,29.06,WSW,248,0.0,0.0,60,0.00,,---,0.00,VWS V14.01,2013-02-03 04:24:00,
2013-02-02 22:29:00,12.7,1.5,29.06,WSW,248,0.0,0.0,60,0.00,,---,0.00,VWS V14.01,2013-02-03 04:29:00,
2013-02-02 22:34:00,12.4,1.1,29.06,WSW,248,0.0,0.0,60,0.00,,---,0.00,VWS V14.01,2013-02-03 04:34:00,
2013-02-02 22:39:00,12.6,1.3,29.06,WSW,248,0.0,0.0,60,0.00,,---,0.00,VWS V14.01,2013-02-03 04:39:00,
2013-02-02 22:44:00,11.7,0.5,29.06,WSW,248,0.0,0.0,60,0.00,,---,0.00,VWS V14.01,2013-02-03 04:44:00,
2013-02-02 22:49:00,11.7,0.5,29.06,WSW,248,0.0,0.0,60,0.00,,---,0.00,VWS V14.01,2013-02-03 04:49:00,
2013-02-02 22:54:00,11.3,0.1,29.06,WSW,248,0.0,0.0,60,0.00,,---,0.00,VWS V14.01,2013-02-03 04:54:00,
2013-02-02 22:59:00,10.6,-0.6,29.06,WSW,248,0.0,0.0,60,0.00,,---,0.00,VWS V14.01,2013-02-03 04:59:00,
2013-02-02 23:00:00,10.6,-0.6,29.06,WSW,248,0.0,0.0,60,0.00,,---,0.00,VWS V14.01,2013-02-03 05:00:00,
2013-02-02 23:01:00,10.8,-0.4,29.06,WSW,248,0.0,0.0,60,0.00,,---,0.00,VWS V14.01,2013-02-03 05:01:00,
2013-02-02 23:06:00,10.6,-0.6,29.06,WSW,248,0.0,0.0,60,0.00,,---,0.00,VWS V14.01,2013-02-03 05:06:00,
2013-02-02 23:11:00,10.6,-0.6,29.06,WSW,248,0.0,0.0,60,0.00,,---,0.00,VWS V14.01,2013-02-03 05:11:00,
2013-02-02 23:16:00,10.6,-0.6,29.06,WSW,248,0.0,0.0,60,0.00,,---,0.00,VWS V14.01,2013-02-03 05:16:00,
2013-02-02 23:21:00,10.8,-0.4,29.06,WSW,248,0.0,0.0,60,0.00,,---,0.00,VWS V14.01,2013-02-03 05:21:00,
2013-02-02 23:26:00,10.8,-0.4,29.06,WSW,248,0.0,0.0,60,0.00,,---,0.00,VWS V14.01,2013-02-03 05:26:00,
2013-02-02 23:31:00,11.1,0.0,29.06,WSW,248,0.0,0.0,60,0.00,,---,0.00,VWS V14.01,2013-02-03 05:31:00,
2013-02-02 23:36:00,11.1,0.0,29.06,WSW,248,0.0,0.0,60,0.00,,---,0.00,VWS V14.01,2013-02-03 05:36:00,
2013-02-02 23:41:00,10.4,-0.7,29.06,WSW,248,1.3,1.3,60,0.00,,---,0.00,VWS V14.01,2013-02-03 05:41:00,
2013-02-02 23:46:00,10.6,-0.6,29.06,WSW,248,0.0,0.0,60,0.00,,---,0.00,VWS V14.01,2013-02-03 05:46:00,
2013-02-02 23:51:00,10.4,-0.7,29.06,WSW,248,0.0,0.0,60,0.00,,---,0.00,VWS V14.01,2013-02-03 05:51:00,
2013-02-02 23:56:00,10.2,-0.9,29.06,WSW,248,0.0,0.0,60,0.00,,---,0.00,VWS V14.01,2013-02-03 05:56:00,